www.pogodaiklimat.ru

Погода и климат >> Архив погоды >> Колумбия >> Monteria


ПОГОДА в Monteria

  • Прогноз погоды в Monteria
  • Монитор погоды в Monteria
  • Климат города

АРХИВ ПОГОДЫ в Monteria

Время (UTC), дата Ветер
(напр.,м/с)
 
Видим.   Явления Облачность Т
(С)
Тd
(С)
f
(%)
Тe
(С)
Тes
(С)
Комфортность P
(гПа)
Po
(гПа)
Тmin
(С)
Tmax
(С)
R
(мм)
R24
(мм)
S
(см)
12 17.04 штиль 0 8000 м мгла 5/5 600 м
[Sc diur, vesp As trans]
+25.8 +25.0 95 +37 +38 очень
душно
1010.9 1009.5 +24.4
15 17.04 штиль 0 15 км мгла 5/5 600 м
[Sc diur, vesp]
+31.2 +24.7 68 +44 +55 опасность
перегрева
1012.0 1010.6
18 17.04 штиль 0 15 км мгла 9/6 600 м
[Sc diur, vesp Cs]
+34.0 +25.2 60 +48 +58 опасность
перегрева
1009.4 1008.0
21 17.04 СЗ 5 15 км мгла 8/1 600 м
[Sc diur, vesp Cs]
+33.2 +25.2 63 +47 +50 опасность
перегрева
1006.7 1005.3
00 18.04 СЗ 4 12 км мгла 10/4 540 м
[Frnb As trans]
+29.4 +25.1 78 +43 +43 опасность
перегрева
1008.8 1007.4 +35.6
03 18.04 штиль 0 10 км в посл. час гроза 9/6 540 м
[Sc diur, vesp As trans]
+27.4 +25.2 88 +40 +40 очень
душно
1011.1 1009.7
12 18.04 штиль 0 6000 м мгла 10/6 360 м
[Frnb As trans]
+26.2 +25.1 94 +38 +38 очень
душно
1010.7 1009.3 +24.4
15 18.04 Ю 3 15 км мгла 9/1 400 м
[Sc diur, vesp As trans]
+29.6 +23.3 69 +40 +46 очень
душно
1011.5 1010.1
18 18.04 штиль 0 15 км мгла 5/5 600 м
[Sc diur, vesp]
+33.2 +24.3 60 +46 +60 опасность
перегрева
1009.3 1007.8
21 18.04 СЗ 4 15 км мгла 8/4 600 м
[Sc diur, vesp As trans]
+31.4 +24.3 66 +44 +45 опасность
перегрева
1007.1 1005.7
00 19.04 СЗ 6 12 км мгла 10/8 540 м
[Sc diur, vesp As trans]
+29.0 +24.4 76 +41 +41 опасность
перегрева
1008.2 1006.8 +34.8
12 19.04 штиль 0 8000 м мгла 10/9 540 м
[Sc diur, vesp As trans]
+24.6 +24.0 96 +34 +34 очень
душно
1010.9 1009.5 +23.6 0.7
15 19.04 штиль 0 15 км мгла 4/4 600 м
[Sc diur, vesp As trans]
+31.6 +23.8 63 +43 +56 опасность
перегрева
1010.3 1008.9
18 19.04 штиль 0 16 км мгла 5/5 600 м
[Sc diur, vesp]
+35.6 +24.6 53 +48 +62 опасность
перегрева
1008.7 1007.3
00 20.04 СЗ 4 15 км мгла 3/1 540 м
[Sc diur, vesp Ci fib]
+30.0 +24.9 74 +43 +43 опасность
перегрева
1008.1 1006.7 +37.0
03 20.04 штиль 0 12 км мгла 5/5 540 м
[Sc diur, vesp]
+27.6 +25.5 88 +40 +40 очень
душно
1010.3 1008.9
12 20.04 штиль 0 12 км в посл. час морось 10/3 540 м
[Frnb As op]
+23.8 +23.2 96 +32 +32 очень
душно
1010.6 1009.2 +22.6 0.2
15 20.04 штиль 0 12 км слабая морось 10/3 90 м
[Frnb As op]
+24.4 +23.9 97 +33 +36 очень
душно
1011.3 1009.9
18 20.04 штиль 0 15 км мгла 10/5 540 м
[Sc diur, vesp As op]
+29.0 +24.7 78 +41 +44 опасность
перегрева
1009.5 1008.2 0.4
21 20.04 штиль 0 15 км мгла 10/8 540 м
[Sc diur, vesp As trans]
+31.4 +25.0 69 +45 +46 опасность
перегрева
1007.3 1005.9
00 21.04 СЗ 4 12 км мгла 10/9 500 м
[Sc diur, vesp As trans]
+27.6 +25.2 87 +40 +40 очень
душно
1008.7 1007.3 +31.8
03 21.04 штиль 0 12 км мгла 8/8 540 м
[Sc diur, vesp As trans]
+26.6 +25.0 91 +38 +38 очень
душно
1010.0 1006.6
12 21.04 штиль 0 4000 м мгла 4/1 600 м
[Sc diur, vesp As trans Ci fib]
+26.0 +25.5 97 +38 +39 очень
душно
1009.4 1008.0 +24.2 6
15 21.04 штиль 0 15 км мгла 6/5 540 м
[Sc diur, vesp Ac trans]
+32.2 +26.1 70 +48 +58 опасность
перегрева
1009.5 1008.1
18 21.04 штиль 0 15 км мгла 10/8 540 м
[Sc diur, vesp As trans]
+31.6 +24.9 68 +45 +47 опасность
перегрева
1008.0 1006.6
21 21.04 штиль 0 15 км мгла 10/4 600 м
[Sc diur, vesp As trans]
+29.6 +25.3 78 +43 +45 опасность
перегрева
1005.7 1004.3
00 22.04 С 3 12 км мгла 10/3 500 м
[Sc diur, vesp As trans]
+27.6 +24.9 85 +39 +39 очень
душно
1008.2 1006.8 +30.4
12 22.04 штиль 0 7000 м мгла 9/9 600 м
[Sc diur, vesp]
+26.6 +25.8 95 +39 +39 очень
душно
1009.1 1007.7 +25.2 0.2
15 22.04 штиль 0 15 км в посл. час гроза 10/3 600 м
[Sc diur, vesp As op]
+28.2 +23.2 74 +38 +41 очень
душно
1009.8 1008.4
18 22.04 штиль 0 15 км мгла 9/6 500 м
[Sc diur, vesp As trans]
+31.8 +25.7 70 +47 +53 опасность
перегрева
1009.1 1007.7
21 22.04 штиль 0 15 км мгла 10/4 500 м
[Sc diur, vesp As trans]
+31.2 +25.1 70 +45 +47 опасность
перегрева
1006.4 1005.0
03 23.04 штиль 0 12 км мгла 10/6 540 м
[Sc diur, vesp As trans]
+27.0 +24.6 87 +38 +38 очень
душно
1010.4 1009.0
12 23.04 штиль 0 8000 м мгла 10/8 540 м
[Sc diur, vesp As trans]
+25.4 +24.8 96 +36 +36 очень
душно
1009.9 1008.5 +24.2
15 23.04 штиль 0 15 км мгла 8/5 540 м
[Sc diur, vesp As trans]
+30.8 +25.2 72 +45 +52 опасность
перегрева
1011.1 1009.7
18 23.04 СВ 3 16 км мгла 6/4 600 м
[Sc diur, vesp As trans Ci fib]
+34.0 +23.4 54 +45 +53 опасность
перегрева
1008.8 1007.4
21 23.04 СЗ 6 16 км мгла 10/4 500 м
[Frnb As trans]
+31.6 +24.9 68 +45 +46 опасность
перегрева
1006.4 1005.0
00 24.04 штиль 0 10 км гроза без осадков {морось} 10/4 300 м
[Cb cap As op]
+27.0 +24.0 84 +37 +37 очень
душно
1009.9 1008.5 +35.8 0.2
03 24.04 штиль 0 12 км мгла 6/3 540 м
[Sc diur, vesp As op]
+26.2 +24.6 91 +37 +37 очень
душно
1010.7 1009.3

 

Местоположение метеостанции Monteria (Колумбия): широта 8.82 долгота -75.85 высота над уровнем моря 26 м.

В архиве по умолчанию представлена погода в Monteria за последнюю неделю. Архивные данные за месяц целиком и за предыдущие месяцы, начиная с января 2011 года, Вы можете получить, выбрав интересующий диапазон дат из раскрывающегося списка и нажав кнопку "Ввод!".


*Определитесь, кто Вы:
робот инопланетянин человек

Внимание! Время в таблицах - всемирное. Для получения местного времени необходимо прибавить поправку, которая в Monteria равна -5 ч.

Смотрите также архив погоды в соседних городах и на ближайших метеорологических станциях:

Погода в Apartado (Колумбия) (145 км)
Погода в Cartagena (Колумбия) (185 км)
Погода в Barranquilla (Колумбия) (257 км)
Погода в Medellin (Колумбия) (290 км)
Погода в Barrancabermeja (Колумбия) (302 км)
Погода в Rionegro (Колумбия) (303 км)
Погода в Santa Marta (Колумбия) (312 км)
Погода в Valledupar (Колумбия) (337 км)
Погода в Bucaramanga (Колумбия) (349 км)
Погода в Quibdo (Колумбия) (355 км)

Пояснения к столбцам:

Ветер - указаны скорость ветра в м/с - средняя за 10 мин, порывы в срок и между сроками (в фигурных скобках) и направление, откуда дует ветер: С - северный, СВ - северо-восточный, В - восточный, ЮВ - юго-восточный, Ю - южный, ЮЗ - юго-западный, З - западный, СЗ - северо-западный.
Видимость - горизонтальная дальность видимости в метрах или километрах. При видимости от 1 до 10 км при отсутствии осадков обычно наблюдается дымка, при ухудшении видимости до 1 км и менее - туман. В сухую погоду видимость может ухудшаться дымом, пылью или мглою.
Явления - указаны атмосферные явления, наблюдавшиеся в срок или в последний час перед сроком; фигурными скобками обозначены явления, наблюдавшиеся между сроками (за 1-3 часа до срока); квадратными скобками обозначены град или гололедные отложения с указанием их диаметра в мм.
Облачность - указаны через наклонную черту общая и нижняя облачность в баллах и высота нижней границы облаков в метрах; квадратными скобками обозначены формы облаков: Ci - перистые, Cs - перисто-слоистые, Cc - перисто-кучевые, Ac - высококучевые, As - высокослоистые, Sc - слоисто-кучевые, Ns - слоисто-дождевые, Cu - кучевые, Cb - кучево-дождевые. Подробнее классификацию облаков см. в Атласе облаков (PDF).
T - Температура воздуха - температура, измеренная на высоте 2 м над землей.
Td - Температура точки росы - температура, при понижении до которой содержащийся в воздухе водяной пар достигнет насыщения.
f - Относительная влажность воздуха - влажноcть воздуха, измеренная на высоте 2 м над землей.
Te - Эффективная температура - температура, которую ощущает одетый по сезону человек в тени. Характеристика душности погоды. При расчете учитывается влияние влажности воздуха и скорости ветра на теплоощущения человека.
Tes - Эффективная температура на солнце - температура, которую ощущает человек, с поправкой на солнечный нагрев. Характеристика знойности погоды. Зависит от высоты солнца над горизонтом, облачности и скорости ветра. Ночью, в пасмурную погоду, а также при ветре 12 м/с и более поправка равна нулю.
P - Атмосферное давление - приведенное к уровню моря атмосферное давление.
Po - Атмосферное давление - измеренное на уровне метеостанции атмосферное давление.
Tmin - Минимальная температура - минимум температуры воздуха на высоте 2 м над землей.
Tmax - Максимальная температура - максимум температуры воздуха на высоте 2 м над землей.
R - Количество осадков - Количество выпавших осадков за период времени, мм. При наведении курсора мыши на число - период времени, за который выпало указанное количество осадков.
R24 - Количество осадков - Количество выпавших осадков за 24 часа, мм.
S - Снежный покров - Высота снежного покрова, см. При наведении курсора мыши на число - состояние снежного покрова и степень покрытия местности в баллах.